Location: Harwich
(41.7160°N, 69.9939°W)
Time: 01:32:48
(UTC+02:00)

AO-7 - Pass Details

Date: 21 September 2024
Orbit: 1440 x 1458 km, 102.0° (Epoch: 10 October)

Event Time Altitude Azimuth Distance (km) Brightness Sun altitude
Rises 01:24:49 0° 223° (SW) 4,542 ? -9.2°
Reaches altitude 10° 01:30:07 10° 251° (WSW) 3,574 ? -10.2°
Maximum altitude 01:33:07 12° 273° (W) 3,408 ? -10.7°
Drops below altitude 10° 01:36:07 10° 294° (WNW) 3,585 ? -11.3°
Sets 01:41:32 0° 323° (NW) 4,572 ? -12.3°
